Time,TemperatureF,DewpointF,PressureIn,WindDirection,WindDirectionDegrees,WindSpeedMPH,WindSpeedGustMPH,Humidity,HourlyPrecipIn,Conditions,Clouds,dailyrainin,SoftwareType,DateUTC
2013-07-19 00:03:00,77.3,72.1,29.91,West,264,0.0,10.0,84,0.00,CLR,,0.00,WeatherDisplay:10.37,2013-07-19 04:03:00,
2013-07-19 00:13:00,77.1,72.2,29.91,West,264,0.0,0.0,85,0.00,CLR,,0.00,WeatherDisplay:10.37,2013-07-19 04:13:00,
2013-07-19 00:23:00,76.5,72.0,29.91,West,264,0.0,0.0,86,0.00,CLR,,0.00,WeatherDisplay:10.37,2013-07-19 04:23:00,
2013-07-19 00:33:00,76.2,72.0,29.90,West,265,0.0,0.0,87,0.00,CLR,,0.00,WeatherDisplay:10.37,2013-07-19 04:33:00,
2013-07-19 00:43:00,75.8,72.0,29.90,West,266,0.0,0.0,88,0.00,CLR,,0.00,WeatherDisplay:10.37,2013-07-19 04:43:00,
2013-07-19 00:53:00,75.6,72.1,29.90,WNW,286,0.0,0.0,89,0.00,CLR,,0.00,WeatherDisplay:10.37,2013-07-19 04:53:00,
2013-07-19 01:03:00,75.5,72.0,29.90,WNW,289,0.0,0.0,89,0.00,CLR,,0.00,WeatherDisplay:10.37,2013-07-19 05:03:00,
2013-07-19 01:13:00,75.5,72.4,29.90,WNW,289,0.0,0.0,90,0.00,CLR,,0.00,WeatherDisplay:10.37,2013-07-19 05:13:00,
2013-07-19 01:23:00,75.3,72.2,29.90,WNW,288,0.0,0.0,90,0.00,CLR,,0.00,WeatherDisplay:10.37,2013-07-19 05:23:00,
2013-07-19 01:33:00,75.1,72.0,29.90,WNW,289,0.0,0.0,90,0.00,CLR,,0.00,WeatherDisplay:10.37,2013-07-19 05:33:00,
2013-07-19 01:43:00,75.1,72.3,29.90,WNW,288,0.0,0.0,91,0.00,CLR,,0.00,WeatherDisplay:10.37,2013-07-19 05:43:00,
2013-07-19 01:53:00,75.3,72.8,29.90,WNW,289,0.0,0.0,92,0.00,CLR,,0.00,WeatherDisplay:10.37,2013-07-19 05:53:00,
2013-07-19 02:03:00,75.3,72.8,29.90,WNW,287,0.0,0.0,92,0.00,CLR,,0.00,WeatherDisplay:10.37,2013-07-19 06:03:00,
2013-07-19 02:13:00,75.3,72.8,29.90,WNW,288,0.0,0.0,92,0.00,CLR,,0.00,WeatherDisplay:10.37,2013-07-19 06:13:00,
2013-07-19 02:23:00,75.3,72.8,29.90,WNW,288,0.0,0.0,92,0.00,CLR,,0.00,WeatherDisplay:10.37,2013-07-19 06:23:00,
2013-07-19 02:33:00,75.3,72.8,29.89,WNW,289,0.0,0.0,92,0.00,CLR,,0.00,WeatherDisplay:10.37,2013-07-19 06:33:00,
2013-07-19 02:43:00,75.1,72.9,29.89,WNW,288,0.0,0.0,93,0.00,CLR,,0.00,WeatherDisplay:10.37,2013-07-19 06:43:00,
2013-07-19 02:53:00,74.9,72.7,29.89,WNW,288,0.0,0.0,93,0.00,CLR,,0.00,WeatherDisplay:10.37,2013-07-19 06:53:00,
2013-07-19 03:03:00,74.9,73.1,29.88,WNW,288,0.0,0.0,94,0.00,CLR,,0.00,WeatherDisplay:10.37,2013-07-19 07:03:00,
2013-07-19 03:13:00,75.1,72.9,29.88,WNW,292,0.0,0.0,93,0.00,CLR,,0.00,WeatherDisplay:10.37,2013-07-19 07:13:00,
2013-07-19 03:23:00,75.0,72.8,29.89,WNW,294,0.0,0.0,93,0.00,CLR,,0.00,WeatherDisplay:10.37,2013-07-19 07:23:00,
2013-07-19 03:33:00,74.9,73.1,29.89,West,262,0.0,0.0,94,0.00,CLR,,0.00,WeatherDisplay:10.37,2013-07-19 07:33:00,
2013-07-19 03:43:00,74.8,73.0,29.89,West,266,0.0,0.0,94,0.00,CLR,,0.00,WeatherDisplay:10.37,2013-07-19 07:43:00,
2013-07-19 03:53:00,74.7,72.9,29.88,West,268,0.0,0.0,94,0.00,CLR,,0.00,WeatherDisplay:10.37,2013-07-19 07:53:00,
2013-07-19 04:03:00,74.6,72.8,29.88,West,267,0.0,0.0,94,0.00,CLR,,0.00,WeatherDisplay:10.37,2013-07-19 08:03:00,
2013-07-19 04:13:00,74.4,72.6,29.88,West,268,0.0,0.0,94,0.00,CLR,,0.00,WeatherDisplay:10.37,2013-07-19 08:13:00,
2013-07-19 04:23:00,74.2,72.4,29.88,West,268,0.0,0.0,94,0.00,CLR,,0.00,WeatherDisplay:10.37,2013-07-19 08:23:00,
2013-07-19 04:33:00,74.1,72.3,29.88,West,268,0.0,0.0,94,0.00,CLR,,0.00,WeatherDisplay:10.37,2013-07-19 08:33:00,
2013-07-19 04:43:00,73.9,72.1,29.88,West,268,0.0,0.0,94,0.00,CLR,,0.00,WeatherDisplay:10.37,2013-07-19 08:43:00,
2013-07-19 04:53:00,73.9,72.1,29.87,West,269,0.0,0.0,94,0.00,CLR,,0.00,WeatherDisplay:10.37,2013-07-19 08:53:00,
2013-07-19 05:03:00,73.7,72.2,29.86,West,269,0.0,0.0,95,0.00,FEW,,0.00,WeatherDisplay:10.37,2013-07-19 09:03:00,
2013-07-19 05:13:00,73.7,71.9,29.86,West,273,0.0,0.0,94,0.00,FEW,,0.00,WeatherDisplay:10.37,2013-07-19 09:13:00,
2013-07-19 05:23:00,73.9,72.1,29.87,West,278,0.0,0.0,94,0.00,FEW,,0.00,WeatherDisplay:10.37,2013-07-19 09:23:00,
2013-07-19 05:33:00,73.9,72.1,29.86,West,281,0.0,0.0,94,0.00,FEW,,0.00,WeatherDisplay:10.37,2013-07-19 09:33:00,
2013-07-19 05:43:00,73.7,71.9,29.86,West,281,0.0,0.0,94,0.00,FEW,,0.00,WeatherDisplay:10.37,2013-07-19 09:43:00,
2013-07-19 05:53:00,73.7,71.9,29.86,West,281,0.0,0.0,94,0.00,FEW,,0.00,WeatherDisplay:10.37,2013-07-19 09:53:00,
2013-07-19 06:03:00,73.9,72.1,29.87,ESE,122,0.0,0.0,94,0.00,FEW,,0.00,WeatherDisplay:10.37,2013-07-19 10:03:00,
2013-07-19 06:13:00,74.2,72.0,29.87,SSE,156,0.0,0.0,93,0.00,CLR,,0.00,WeatherDisplay:10.37,2013-07-19 10:13:00,
2013-07-19 06:23:00,74.6,72.1,29.86,SW,227,0.0,0.0,92,0.00,CLR,,0.00,WeatherDisplay:10.37,2013-07-19 10:23:00,
2013-07-19 06:33:00,74.9,72.4,29.86,SW,229,0.0,1.0,92,0.00,CLR,,0.00,WeatherDisplay:10.37,2013-07-19 10:33:00,
2013-07-19 06:43:00,75.3,72.2,29.86,WSW,250,0.0,1.0,90,0.00,CLR,,0.00,WeatherDisplay:10.37,2013-07-19 10:43:00,
2013-07-19 06:53:00,75.6,72.1,29.85,WSW,244,0.0,1.0,89,0.00,CLR,,0.00,WeatherDisplay:10.37,2013-07-19 10:53:00,
2013-07-19 07:03:00,75.8,72.3,29.85,West,267,0.0,1.0,89,0.00,CLR,,0.00,WeatherDisplay:10.37,2013-07-19 11:03:00,
2013-07-19 07:13:00,76.4,72.6,29.85,West,268,0.0,1.0,88,0.00,CLR,,0.00,WeatherDisplay:10.37,2013-07-19 11:13:00,
2013-07-19 07:23:00,77.1,72.2,29.85,West,273,0.0,1.0,85,0.00,CLR,,0.00,WeatherDisplay:10.37,2013-07-19 11:23:00,
2013-07-19 07:33:00,77.9,72.6,29.85,SW,233,0.0,3.0,84,0.00,CLR,,0.00,WeatherDisplay:10.37,2013-07-19 11:33:00,
2013-07-19 07:43:00,78.7,72.7,29.85,WSW,257,1.0,6.0,82,0.00,CLR,,0.00,WeatherDisplay:10.37,2013-07-19 11:43:00,
2013-07-19 07:53:00,79.5,72.8,29.85,WSW,244,0.0,2.0,80,0.00,CLR,,0.00,WeatherDisplay:10.37,2013-07-19 11:53:00,
2013-07-19 08:03:00,80.2,73.1,29.85,West,261,0.0,4.0,79,0.00,CLR,,0.00,WeatherDisplay:10.37,2013-07-19 12:03:00,
2013-07-19 08:13:00,80.8,73.3,29.85,WSW,249,0.0,2.0,78,0.00,CLR,,0.00,WeatherDisplay:10.37,2013-07-19 12:13:00,
2013-07-19 08:23:00,81.2,72.9,29.85,WSW,239,0.0,4.0,76,0.00,CLR,,0.00,WeatherDisplay:10.37,2013-07-19 12:23:00,
2013-07-19 08:33:00,81.4,73.1,29.85,WSW,249,0.0,4.0,76,0.00,CLR,,0.00,WeatherDisplay:10.37,2013-07-19 12:33:00,
2013-07-19 08:43:00,81.6,72.9,29.85,WSW,240,0.0,4.0,75,0.00,CLR,,0.00,WeatherDisplay:10.37,2013-07-19 12:43:00,
2013-07-19 08:53:00,82.2,73.1,29.85,WSW,240,0.0,6.0,74,0.00,CLR,,0.00,WeatherDisplay:10.37,2013-07-19 12:53:00,
2013-07-19 09:03:00,82.8,72.9,29.85,SW,229,0.0,3.0,72,0.00,CLR,,0.00,WeatherDisplay:10.37,2013-07-19 13:03:00,
2013-07-19 09:13:00,83.1,72.7,29.85,WSW,255,1.0,6.0,71,0.00,CLR,,0.00,WeatherDisplay:10.37,2013-07-19 13:13:00,
2013-07-19 09:23:00,83.5,73.1,29.85,West,259,0.0,6.0,71,0.00,CLR,,0.00,WeatherDisplay:10.37,2013-07-19 13:23:00,
2013-07-19 09:33:00,84.0,72.8,29.85,WNW,282,1.0,6.0,69,0.00,CLR,,0.00,WeatherDisplay:10.37,2013-07-19 13:33:00,
2013-07-19 09:43:00,84.3,73.4,29.85,WSW,251,0.0,9.0,70,0.00,CLR,,0.00,WeatherDisplay:10.37,2013-07-19 13:43:00,
2013-07-19 09:53:00,84.9,73.6,29.84,West,268,0.0,5.0,69,0.00,CLR,,0.00,WeatherDisplay:10.37,2013-07-19 13:53:00,
2013-07-19 10:03:00,86.1,73.9,29.84,WSW,258,1.0,6.0,67,0.00,CLR,,0.00,WeatherDisplay:10.37,2013-07-19 14:03:00,
2013-07-19 10:13:00,86.8,75.0,29.84,WNW,287,0.0,3.0,68,0.00,CLR,,0.00,WeatherDisplay:10.37,2013-07-19 14:13:00,
2013-07-19 10:23:00,86.8,73.6,29.84,West,267,2.0,7.0,65,0.00,CLR,,0.00,WeatherDisplay:10.37,2013-07-19 14:23:00,
2013-07-19 10:33:00,87.0,72.9,29.83,WSW,242,2.0,10.0,63,0.00,CLR,,0.00,WeatherDisplay:10.37,2013-07-19 14:33:00,
2013-07-19 10:43:00,87.2,73.5,29.83,WSW,251,1.0,10.0,64,0.00,CLR,,0.00,WeatherDisplay:10.37,2013-07-19 14:43:00,
2013-07-19 10:53:00,87.6,73.4,29.83,West,281,1.0,10.0,63,0.00,CLR,,0.00,WeatherDisplay:10.37,2013-07-19 14:53:00,
2013-07-19 11:03:00,88.1,73.4,29.83,WSW,257,5.0,12.0,62,0.00,CLR,,0.00,WeatherDisplay:10.37,2013-07-19 15:03:00,
2013-07-19 11:13:00,88.3,72.7,29.83,WSW,254,6.0,17.0,60,0.00,CLR,,0.00,WeatherDisplay:10.37,2013-07-19 15:13:00,
2013-07-19 11:23:00,88.5,72.8,29.83,West,261,1.0,17.0,60,0.00,CLR,,0.00,WeatherDisplay:10.37,2013-07-19 15:23:00,
2013-07-19 11:33:00,88.8,72.1,29.83,West,276,5.0,17.0,58,0.00,CLR,,0.00,WeatherDisplay:10.37,2013-07-19 15:33:00,
2013-07-19 11:43:00,88.7,72.5,29.83,WSW,237,1.0,17.0,59,0.00,CLR,,0.00,WeatherDisplay:10.37,2013-07-19 15:43:00,
2013-07-19 11:53:00,88.9,72.2,29.82,WSW,252,1.0,17.0,58,0.00,CLR,,0.00,WeatherDisplay:10.37,2013-07-19 15:53:00,
2013-07-19 12:03:00,88.9,73.2,29.82,West,262,2.0,17.0,60,0.00,CLR,,0.00,WeatherDisplay:10.37,2013-07-19 16:03:00,
2013-07-19 12:13:00,89.5,72.3,29.82,West,263,2.0,17.0,57,0.00,CLR,,0.00,WeatherDisplay:10.37,2013-07-19 16:13:00,
2013-07-19 12:23:00,89.8,72.0,29.81,WSW,256,3.0,17.0,56,0.00,CLR,,0.00,WeatherDisplay:10.37,2013-07-19 16:23:00,
2013-07-19 12:33:00,89.3,71.5,29.80,WSW,255,2.0,17.0,56,0.00,CLR,,0.00,WeatherDisplay:10.37,2013-07-19 16:33:00,
2013-07-19 12:43:00,89.5,71.2,29.80,West,267,2.0,17.0,55,0.00,CLR,,0.00,WeatherDisplay:10.37,2013-07-19 16:43:00,
2013-07-19 12:53:00,90.2,71.8,29.80,West,266,2.0,17.0,55,0.00,CLR,,0.00,WeatherDisplay:10.37,2013-07-19 16:53:00,
2013-07-19 13:03:00,90.4,73.1,29.80,West,261,0.0,17.0,57,0.00,CLR,,0.00,WeatherDisplay:10.37,2013-07-19 17:03:00,
2013-07-19 13:13:00,90.9,72.5,29.80,WSW,254,2.0,17.0,55,0.00,CLR,,0.00,WeatherDisplay:10.37,2013-07-19 17:13:00,
2013-07-19 13:23:00,91.1,72.7,29.79,West,276,1.0,7.0,55,0.00,CLR,,0.00,WeatherDisplay:10.37,2013-07-19 17:23:00,
2013-07-19 13:33:00,91.5,72.0,29.78,West,277,1.0,17.0,53,0.00,CLR,,0.00,WeatherDisplay:10.37,2013-07-19 17:33:00,
2013-07-19 13:43:00,92.0,71.9,29.78,WSW,250,3.0,17.0,52,0.00,CLR,,0.00,WeatherDisplay:10.37,2013-07-19 17:43:00,
2013-07-19 13:53:00,91.7,71.6,29.78,WSW,254,2.0,17.0,52,0.00,CLR,,0.00,WeatherDisplay:10.37,2013-07-19 17:53:00,
2013-07-19 14:03:00,92.6,73.0,29.78,WSW,257,1.0,17.0,53,0.00,CLR,,0.00,WeatherDisplay:10.37,2013-07-19 18:03:00,
2013-07-19 14:13:00,92.2,72.6,29.78,West,260,1.0,17.0,53,0.00,CLR,,0.00,WeatherDisplay:10.37,2013-07-19 18:13:00,
2013-07-19 14:23:00,91.7,72.7,29.77,West,278,2.0,17.0,54,0.00,CLR,,0.00,WeatherDisplay:10.37,2013-07-19 18:23:00,
2013-07-19 14:33:00,91.5,71.4,29.77,West,263,3.0,17.0,52,0.00,CLR,,0.00,WeatherDisplay:10.37,2013-07-19 18:33:00,
2013-07-19 14:43:00,92.0,73.0,29.77,WSW,256,2.0,17.0,54,0.00,CLR,,0.00,WeatherDisplay:10.37,2013-07-19 18:43:00,
2013-07-19 14:53:00,92.4,73.4,29.76,West,263,1.0,17.0,54,0.00,CLR,,0.00,WeatherDisplay:10.37,2013-07-19 18:53:00,
2013-07-19 15:03:00,92.4,72.8,29.75,WSW,255,1.0,17.0,53,0.00,CLR,,0.00,WeatherDisplay:10.37,2013-07-19 19:03:00,
2013-07-19 15:13:00,92.4,71.6,29.75,West,264,2.0,17.0,51,0.00,CLR,,0.00,WeatherDisplay:10.37,2013-07-19 19:13:00,
2013-07-19 15:23:00,91.7,71.6,29.74,West,265,7.0,17.0,52,0.00,CLR,,0.00,WeatherDisplay:10.37,2013-07-19 19:23:00,
2013-07-19 15:33:00,92.0,71.3,29.74,West,265,3.0,20.0,51,0.00,CLR,,0.00,WeatherDisplay:10.37,2013-07-19 19:33:00,
2013-07-19 15:43:00,92.0,71.9,29.74,West,267,2.0,20.0,52,0.00,CLR,,0.00,WeatherDisplay:10.37,2013-07-19 19:43:00,
2013-07-19 15:53:00,92.0,70.7,29.73,WSW,258,3.0,20.0,50,0.00,CLR,,0.00,WeatherDisplay:10.37,2013-07-19 19:53:00,
2013-07-19 16:03:00,92.2,72.6,29.73,West,260,1.0,20.0,53,0.00,CLR,,0.00,WeatherDisplay:10.37,2013-07-19 20:03:00,
2013-07-19 16:13:00,92.0,71.9,29.73,West,260,1.0,20.0,52,0.00,FEW,,0.00,WeatherDisplay:10.37,2013-07-19 20:13:00,
2013-07-19 16:23:00,91.5,72.0,29.73,WSW,254,1.0,20.0,53,0.00,FEW,,0.00,WeatherDisplay:10.37,2013-07-19 20:23:00,
2013-07-19 16:33:00,91.3,72.9,29.72,West,272,1.0,20.0,55,0.00,FEW,,0.00,WeatherDisplay:10.37,2013-07-19 20:33:00,
2013-07-19 16:43:00,91.3,74.0,29.72,West,260,1.0,20.0,57,0.00,FEW,,0.00,WeatherDisplay:10.37,2013-07-19 20:43:00,
2013-07-19 16:53:00,90.3,74.5,29.72,WSW,249,1.0,20.0,60,0.00,FEW,,0.00,WeatherDisplay:10.37,2013-07-19 20:53:00,
2013-07-19 17:03:00,90.9,75.1,29.71,WSW,250,1.0,9.0,60,0.00,CLR,,0.00,WeatherDisplay:10.37,2013-07-19 21:03:00,
2013-07-19 17:13:00,90.5,75.2,29.71,WSW,238,1.0,20.0,61,0.00,CLR,,0.00,WeatherDisplay:10.37,2013-07-19 21:13:00,
2013-07-19 17:23:00,88.9,75.1,29.70,West,261,1.0,20.0,64,0.00,CLR,,0.00,WeatherDisplay:10.37,2013-07-19 21:23:00,
2013-07-19 17:33:00,88.1,74.8,29.70,WSW,249,0.0,20.0,65,0.00,CLR,,0.00,WeatherDisplay:10.37,2013-07-19 21:33:00,
2013-07-19 17:43:00,87.8,75.1,29.70,WSW,251,0.0,20.0,66,0.00,CLR,,0.00,WeatherDisplay:10.37,2013-07-19 21:43:00,
2013-07-19 17:53:00,88.3,75.9,29.70,SW,231,0.0,20.0,67,0.00,CLR,,0.00,WeatherDisplay:10.37,2013-07-19 21:53:00,
2013-07-19 18:03:00,88.1,75.3,29.69,SW,226,0.0,20.0,66,0.00,CLR,,0.00,WeatherDisplay:10.37,2013-07-19 22:03:00,
2013-07-19 18:13:00,88.1,75.8,29.69,WNW,289,1.0,20.0,67,0.00,CLR,,0.00,WeatherDisplay:10.37,2013-07-19 22:13:00,
2013-07-19 18:23:00,87.8,75.5,29.69,West,266,0.0,20.0,67,0.00,CLR,,0.00,WeatherDisplay:10.37,2013-07-19 22:23:00,
2013-07-19 18:33:00,87.6,76.6,29.70,WSW,239,1.0,20.0,70,0.00,CLR,,0.00,WeatherDisplay:10.37,2013-07-19 22:33:00,
2013-07-19 18:43:00,87.2,76.2,29.70,SW,220,0.0,20.0,70,0.00,CLR,,0.00,WeatherDisplay:10.37,2013-07-19 22:43:00,
2013-07-19 18:53:00,86.6,75.6,29.70,WSW,258,2.0,20.0,70,0.00,CLR,,0.00,WeatherDisplay:10.37,2013-07-19 22:53:00,
2013-07-19 19:03:00,86.4,76.3,29.70,West,276,0.0,20.0,72,0.00,CLR,,0.00,WeatherDisplay:10.37,2013-07-19 23:03:00,
2013-07-19 19:13:00,86.1,76.0,29.70,SW,216,0.0,20.0,72,0.00,CLR,,0.00,WeatherDisplay:10.37,2013-07-19 23:13:00,
2013-07-19 19:23:00,85.5,76.3,29.70,SW,222,1.0,20.0,74,0.00,CLR,,0.00,WeatherDisplay:10.37,2013-07-19 23:23:00,
2013-07-19 19:33:00,85.1,76.3,29.70,WSW,240,1.0,20.0,75,0.00,CLR,,0.00,WeatherDisplay:10.37,2013-07-19 23:33:00,
2013-07-19 19:43:00,84.7,76.3,29.70,SW,221,0.0,20.0,76,0.00,CLR,,0.00,WeatherDisplay:10.37,2013-07-19 23:43:00,
2013-07-19 19:53:00,84.5,76.5,29.71,SW,225,0.0,20.0,77,0.00,CLR,,0.00,WeatherDisplay:10.37,2013-07-19 23:53:00,
2013-07-19 20:03:00,84.3,76.7,29.71,WSW,252,0.0,20.0,78,0.00,CLR,,0.00,WeatherDisplay:10.37,2013-07-20 00:03:00,
2013-07-19 20:13:00,83.9,76.7,29.71,West,269,0.0,20.0,79,0.00,CLR,,0.00,WeatherDisplay:10.37,2013-07-20 00:13:00,
2013-07-19 20:23:00,83.7,76.5,29.71,SW,235,0.0,20.0,79,0.00,CLR,,0.00,WeatherDisplay:10.37,2013-07-20 00:23:00,
2013-07-19 20:33:00,83.5,76.7,29.71,WSW,242,0.0,20.0,80,0.00,CLR,,0.00,WeatherDisplay:10.37,2013-07-20 00:33:00,
2013-07-19 20:43:00,83.1,76.3,29.71,SSW,200,0.0,20.0,80,0.00,CLR,,0.00,WeatherDisplay:10.37,2013-07-20 00:43:00,
2013-07-19 20:53:00,82.9,76.5,29.71,WSW,249,0.0,20.0,81,0.00,CLR,,0.00,WeatherDisplay:10.37,2013-07-20 00:53:00,
2013-07-19 21:03:00,82.8,76.4,29.72,WSW,244,0.0,20.0,81,0.00,CLR,,0.00,WeatherDisplay:10.37,2013-07-20 01:03:00,
2013-07-19 21:13:00,82.6,76.2,29.72,WSW,242,0.0,20.0,81,0.00,CLR,,0.00,WeatherDisplay:10.37,2013-07-20 01:13:00,
2013-07-19 21:23:00,82.4,76.0,29.72,WSW,256,0.0,20.0,81,0.00,CLR,,0.00,WeatherDisplay:10.37,2013-07-20 01:23:00,
2013-07-19 21:33:00,82.4,76.0,29.73,SW,234,0.0,20.0,81,0.00,CLR,,0.00,WeatherDisplay:10.37,2013-07-20 01:33:00,
2013-07-19 21:43:00,82.0,76.0,29.73,SW,220,0.0,20.0,82,0.00,CLR,,0.00,WeatherDisplay:10.37,2013-07-20 01:43:00,
2013-07-19 21:53:00,81.7,75.7,29.73,SW,225,0.0,20.0,82,0.00,CLR,,0.00,WeatherDisplay:10.37,2013-07-20 01:53:00,
2013-07-19 22:03:00,81.4,75.7,29.72,SSW,211,0.0,3.0,83,0.00,CLR,,0.00,WeatherDisplay:10.37,2013-07-20 02:03:00,
2013-07-19 22:13:00,81.0,75.3,29.72,WSW,243,0.0,20.0,83,0.00,CLR,,0.00,WeatherDisplay:10.37,2013-07-20 02:13:00,
2013-07-19 22:23:00,81.0,75.3,29.73,SW,236,0.0,20.0,83,0.00,CLR,,0.00,WeatherDisplay:10.37,2013-07-20 02:23:00,
2013-07-19 22:33:00,80.9,74.9,29.72,WSW,242,0.0,20.0,82,0.00,CLR,,0.00,WeatherDisplay:10.37,2013-07-20 02:33:00,
2013-07-19 22:43:00,80.8,74.8,29.72,WSW,239,0.0,20.0,82,0.00,CLR,,0.00,WeatherDisplay:10.37,2013-07-20 02:43:00,
2013-07-19 22:53:00,80.6,74.6,29.73,SW,236,0.0,20.0,82,0.00,CLR,,0.00,WeatherDisplay:10.37,2013-07-20 02:53:00,
2013-07-19 23:03:00,80.4,74.4,29.72,West,264,1.0,20.0,82,0.00,CLR,,0.00,WeatherDisplay:10.37,2013-07-20 03:03:00,
2013-07-19 23:13:00,80.6,74.6,29.72,West,278,0.0,20.0,82,0.00,CLR,,0.00,WeatherDisplay:10.37,2013-07-20 03:13:00,
2013-07-19 23:23:00,80.4,74.4,29.73,West,267,0.0,20.0,82,0.00,CLR,,0.00,WeatherDisplay:10.37,2013-07-20 03:23:00,
2013-07-19 23:33:00,80.2,74.2,29.72,SW,226,0.0,20.0,82,0.00,CLR,,0.00,WeatherDisplay:10.37,2013-07-20 03:33:00,
2013-07-19 23:43:00,80.0,74.0,29.72,West,266,0.0,20.0,82,0.00,CLR,,0.00,WeatherDisplay:10.37,2013-07-20 03:43:00,
2013-07-19 23:53:00,79.9,73.9,29.72,West,265,0.0,20.0,82,0.00,CLR,,0.00,WeatherDisplay:10.37,2013-07-20 03:53:00,